Location: Aginiparru
(16.2719°N, 80.8848°E)
Time: 19:15:09
(UTC+00:00)

Daily predictions for brighter satellites

Satellite Brightness Start Highest point End
(mag) Time Altitude Azimuth Time Altitude Azimuth Time Altitude Azimuth
Meteor 2-4 Rocket 4.1 13:21:20 10° SSE 13:26:56 48° E 13:32:35 10° NNE
Meteor 1-11 Rocket 4.2 13:22:23 10° N 13:27:56 46° E 13:33:33 10° SSE
Cosmos 2297 Rocket 2.4 13:25:01 10° S 13:30:24 48° ESE 13:35:48 10° NNE
Cosmos 1821 Rocket 4.1 13:25:28 10° N 13:31:36 64° E 13:37:50 10° SSE
Aurora 2 Rocket 3.5 13:27:43 10° W 13:33:35 49° SSW 13:37:50 10° SE
Cosmos 1842 3.2 13:32:48 10° SSE 13:36:07 45° E 13:39:24 10° NNE
Ariane H10 4.5 13:34:41 10° SW 13:39:53 15° SSW 13:42:42 10° SSE
Meteor 2-9 Rocket 4.3 13:40:41 10° N 13:46:31 84° E 13:52:12 10° S
Cosmos 1420 Rocket 4.0 13:47:41 10° N 13:52:50 63° ENE 13:57:55 10° SSE
Cosmos 44 Rocket 3.5 13:51:15 10° NNW 13:56:07 56° ENE 14:00:29 13° SE
Cosmos 2263 Rocket 3.8 13:59:17 13° E 13:59:17 13° E 14:01:43 10° ENE
Cosmos 2227 Rocket 2.8 13:54:22 10° SSE 13:59:23 34° ESE 14:04:25 10° NE
Meteor 1-31 Rocket 2.9 13:57:36 10° S 14:01:10 66° W 14:04:45 10° NNW
Cosmos 2360 Rocket 2.7 13:57:09 10° NNW 14:02:40 59° WSW 14:08:12 10° S
Cosmos 2322 Rocket 3.2 13:58:16 10° NNW 14:03:34 46° WSW 14:08:52 10° S
CARTOSAT-1 3.5 14:00:44 10° SSE 14:04:54 65° ENE 14:09:04 10° N
Cosmos 1766 2.8 14:05:32 10° N 14:08:59 77° E 14:12:00 13° S
Cosmos 1470 3.6 14:06:53 10° NNE 14:09:47 24° E 14:10:24 23° E
Cosmos 1151 Rocket 2.8 14:06:00 10° S 14:10:12 76° E 14:14:26 10° N
GENESIS II 3.2 14:11:55 10° NNW 14:14:45 87° ENE 14:15:51 33° SSE
Cosmos 921 Rocket 3.5 14:12:56 18° SSE 14:15:27 34° E 14:19:17 10° NE
Cosmos 1818 4.3 14:12:43 10° SW 14:18:01 57° WNW 14:23:20 10° NNE
CZ-4B R/B 4.4 14:16:54 19° E 14:18:24 22° ENE 14:22:22 10° NNE
SL-08 R/B 4.4 14:12:35 10° N 14:18:46 88° E 14:24:53 10° S
MOS 1 Rocket 4.2 14:13:57 10° S 14:18:59 54° W 14:23:45 10° NNW
Cosmos 1805 Rocket 4.3 14:15:17 10° NNE 14:19:05 31° E 14:20:06 27° ESE
Hubble Space Telescope 1.5 14:16:29 10° W 14:20:04 37° SSW 14:21:35 26° SSE
Cosmos 1908 2.6 14:16:59 10° N 14:20:09 69° E 14:21:27 32° SSE
TRACE 3.5 14:17:44 10° N 14:20:12 83° WNW 14:21:22 27° SSW
Ariane 3 Deb 4.0 14:17:19 10° SW 14:20:32 28° SSE 14:22:28 23° SE
ARIANE 5 R/B 4.4 14:20:25 10° SW 14:22:37 14° S 14:22:48 14° S
CSL-04 Rocket 4.2 14:21:17 25° ESE 14:23:38 38° ENE 14:28:27 10° N
SL-4 R/B 3.6 14:22:59 10° WSW 14:26:45 36° NW 14:30:36 10° NNE
Cosmos 2219 4.4 14:29:45 22° E 14:29:45 22° E 14:33:08 10° NE
CZ-4 R/B 1.2 14:28:09 37° SE 14:29:24 60° ENE 14:33:07 10° N
Cosmos 1975 3.7 14:27:26 10° NNW 14:31:01 45° W 14:34:22 11° SSW
In-Cosmos 22 4.4 14:27:26 19° SSE 14:31:24 49° E 14:36:52 10° NNE
Okean O Rocket 3.7 14:34:46 13° ENE 14:34:46 13° ENE 14:35:52 10° NE
Cosmos 2219 Rocket 2.8 14:32:16 10° NNW 14:37:39 52° WSW 14:42:10 15° S
Delta 2 Rocket 4.5 14:32:45 10° WSW 14:40:01 89° SSE 14:48:58 10° ENE
RESURS DK-1 2.1 14:39:34 12° SSW 14:43:16 90° NNW 14:47:15 10° NNE
SWIFT 3.7 14:40:55 10° WSW 14:43:22 20° SSW 14:43:22 20° SSW
Cosmos 1743 Rocket 3.8 14:39:45 10° N 14:43:46 45° E 14:43:46 45° E
Cosmos 1535 Rocket 4.5 14:39:00 10° N 14:44:59 59° E 14:47:16 37° SSE
Cosmos 1605 Rocket 4.0 14:41:46 10° N 14:47:41 53° E 14:49:22 41° SE
SL-24 DEB 4.3 14:48:33 52° E 14:48:48 53° E 14:53:16 10° N
Resurs 01 Rocket 2.9 14:45:29 13° SSW 14:48:54 37° W 14:52:56 10° NNW
ATLAS 2A CENTAUR R/B 4.2 14:34:30 10° WNW 14:50:38 42° N 14:53:58 19° ENE
Cosmos 1452 Rocket 4.4 14:46:08 10° NNE 14:50:31 31° ENE 14:50:31 31° ENE
GPS 2-12 Rocket1 3.3 14:49:13 10° W 14:53:48 64° N 14:55:02 45° NE
Cosmos 2237 Rocket 3.6 14:55:57 10° NNE 14:59:41 23° ENE 14:59:41 23° ENE
Meteor 2-19 Rocket 4.4 14:57:08 19° S 15:01:37 81° W 15:07:39 10° N
CZ-2C R/B 4.4 15:06:51 22° WSW 15:07:20 23° W 15:10:05 10° NW
Delta 198 4.3 15:04:34 10° WNW 15:07:50 36° N 15:07:50 36° N
Helios 1A 3.5 15:05:31 10° N 15:08:26 48° N 15:08:26 48° N
Feng Yun 1-1 Rocket 4.3 15:09:07 51° S 15:10:41 84° WSW 15:16:37 10° NNW
MetOp-B 4.4 15:16:36 55° NE 15:16:36 55° NE 15:21:15 10° N
Terra 3.4 15:18:26 23° NNE 15:18:26 23° NNE 15:20:35 10° NNE
Cosmos 1328 Rocket 4.2 15:16:45 51° W 15:16:59 52° W 15:21:15 10° N
ADEOS 4.4 15:16:18 34° SSW 15:17:57 45° WSW 15:22:54 10° NNW
NOSS 0 Rocket 3.8 15:13:23 10° NNW 15:19:32 73° ENE 15:19:45 72° E
Okean-O 4.4 15:22:20 22° NNE 15:22:20 22° NNE 15:24:07 10° N
OAO 3 Rocket 3.9 15:20:34 10° WNW 15:24:20 50° W 15:24:20 50° W
NOSS 2-2 (D) 4.5 15:20:36 10° NNW 15:26:15 86° ENE 15:26:53 75° SE
COSMOS 2428 3.1 15:21:06 10° NNW 15:26:39 57° WSW 15:27:17 54° SW
Cosmos 1000 Rocket 4.4 15:29:58 74° SSW 15:30:32 83° W 15:36:47 10° N
MOS 1 4.3 15:34:36 76° NW 15:34:36 76° NW 15:39:51 10° NNW
SPOT 5 3.9 15:36:03 39° WNW 15:36:03 39° WNW 15:39:33 10° NNW
Cosmos 2263 Rocket 3.1 15:40:45 34° WSW 15:42:38 46° WNW 15:48:02 10° N
Okean O Rocket 4.3 16:12:02 16° NW 16:12:02 16° NW 16:13:11 10° NW
USA 215 4.4 16:41:57 37° NW 16:41:57 37° NW 16:45:38 10° NW
Cosmos 2237 Rocket 4.5 16:39:30 10° NW 16:41:29 19° WNW 16:41:29 19° WNW
Cosmos 2369 Rocket 4.3 20:36:30 23° NE 20:36:30 23° NE 20:38:36 10° NNE
USA 281 4.2 20:49:02 10° NE 20:54:07 39° E 20:54:07 39° E
ATLAS 3B R/B 4.5 21:00:35 10° NNW 21:03:03 22° NW 21:03:03 22° NW
Resurs 1-4 Rocket 4.2 21:14:42 10° N 21:16:10 18° NNW 21:16:10 18° NNW
Atlas Centaur 2 4.3 21:21:31 23° NW 21:24:52 31° N 21:31:58 10° NE
Lacrosse 5 rocket 3.6 21:41:41 18° N 21:41:41 18° N 21:42:54 10° NNE
CZ-2D R/B 4.2 21:38:23 10° NNW 21:39:40 15° NW 21:39:40 15° NW
METEOR-M 4.4 21:38:57 10° N 21:43:24 63° N 21:43:24 63° N
Cosmos 1400 Rocket 4.4 21:47:42 10° NNE 21:51:05 30° E 21:51:05 30° E
ISS -1.2 21:54:31 22° NE 21:54:31 22° NE 21:55:49 10° NE
COSMOS 2406 3.1 21:48:45 10° NNW 21:54:12 79° WNW 21:54:12 79° WNW
Cosmos 2082 Rocket 4.1 21:50:05 10° NW 21:51:33 18° NW 21:51:33 18° NW
ADEOS II 3.9 21:51:38 10° NNW 21:53:35 18° NW 21:53:35 18° NW
Ariane H10+ 3.7 21:59:52 30° S 21:59:52 30° S 22:03:49 10° SE
DMSP B5D2-2 4.1 22:03:35 45° SSE 22:05:15 81° ENE 22:10:30 10° N
Aureole 1 Rocket 4.5 22:10:30 24° NNW 22:10:30 24° NNW 22:12:38 10° N
ARGOS 4.2 22:05:49 10° NNE 22:10:54 42° E 22:14:34 18° SSE
GPS 2-17 Rocket1 4.4 22:12:44 26° SE 22:12:44 26° SE 22:15:44 10° E
Cosmos 1606 Rocket 3.9 22:08:43 10° N 22:12:56 61° E 22:14:17 40° SSE
SL-16 R/B 2.7 22:07:20 10° SSE 22:13:29 74° ENE 22:19:40 10° N
CZ-2C R/B 2.3 22:10:51 10° NNE 22:15:36 78° ESE 22:16:55 48° S
Cosmos 2369 Rocket 4.4 22:18:17 11° NW 22:18:17 11° NW 22:18:50 10° NW
Cosmos 1892 Rocket 3.8 22:17:44 54° NW 22:17:44 54° NW 22:21:35 10° N
H-2A R/B 2.1 22:15:43 10° N 22:20:39 51° WNW 22:21:02 50° W
OAO 1 4.4 22:22:27 46° W 22:23:51 62° SW 22:29:16 10° SE
CZ-3 Stage 3 4.3 22:21:59 22° SSW 22:27:33 46° SE 22:56:57 10° ENE
Nadezhda 2 Rocket 4.4 22:28:01 28° SSW 22:31:30 74° W 22:37:49 10° N
Cosmos 1441 Rocket 3.1 22:33:03 46° SSE 22:33:56 70° E 22:37:26 10° NNE
GPS 2-15 Rocket1 3.2 22:32:24 32° WNW 22:34:23 67° N 22:38:57 10° E
ACS3 Solar Sail 4.3 22:32:57 10° ENE 22:36:11 15° E 22:39:26 10° SE
Cosmos 44 3.2 22:36:08 31° S 22:38:06 64° ESE 22:42:21 10° NNE
BlueWalker 3 4.2 22:38:30 12° NW 22:38:30 12° NW 22:39:49 10° NNW
USA 281 4.4 22:34:20 10° NNW 22:39:16 23° WNW 22:40:59 21° W
USA 32 3.9 22:38:02 21° S 22:41:33 78° W 22:46:47 10° N
Helios 1A Rocket 3.6 22:38:46 10° SSE 22:42:09 46° ENE 22:45:34 10° N
IRS-1D 4.0 22:38:53 10° NNE 22:43:50 56° ESE 22:48:40 10° S
Cosmos 1937 Rocket 4.2 22:43:04 30° W 22:44:11 33° WNW 22:48:49 10° N
PAYLOAD A 4.2 22:39:03 10° N 22:44:20 60° WNW 22:47:29 24° SSW
CZ-4C R/B 1.9 22:45:11 34° W 22:45:45 36° WNW 22:49:34 10° N
Meteor 2-3 Rocket 4.1 22:44:40 29° SW 22:47:04 44° W 22:52:31 10° N
Geosat FO 4.1 22:49:16 47° SSW 22:49:45 54° WSW 22:52:40 10° NNW
Cosmos 1626 Rocket 3.4 22:46:49 17° S 22:50:03 89° ENE 22:54:19 10° N
Chandra Rocket (1) 4.3 22:47:07 10° NW 22:50:35 27° N 22:58:55 10° ENE
UNK 3.6 22:47:07 10° SSE 22:51:38 88° E 22:56:09 10° NNW
Intelsat 5-2 Rocket 1.7 22:53:30 53° SW 22:53:55 73° SSE 22:56:49 10° ENE
Delta 128 3.6 22:52:17 28° WSW 22:54:35 73° NNW 22:59:02 10° ENE
Cosmos 1726 Rocket 3.7 22:50:28 10° NNW 22:54:36 49° W 22:58:03 15° SSW
Cosmos 1656 3.6 22:50:58 18° SSW 22:55:19 80° WNW 23:01:00 10° NNE
ADEOS Rocket 3.4 22:49:27 10° N 22:56:28 82° WNW 23:04:06 10° SSW
BREEZE-M DEB (TANK) 2.7 22:49:04 10° NW 22:57:57 90° NE 23:01:10 10° SE
SL-08 RB Rocket 3.6 22:58:35 10° N 23:03:08 73° WNW 23:07:42 10° SSW
Cosmos 2058 Rocket 3.1 22:58:53 10° N 23:03:14 83° E 23:07:37 10° S
Cosmos 1461 3.5 23:01:32 10° NNW 23:05:30 55° ENE 23:09:23 10° SE
Cosmos 1745 Rocket 3.9 22:59:22 10° S 23:05:31 76° W 23:11:45 10° N
Cosmos 1697 Rocket 4.2 23:02:28 10° SSE 23:07:31 35° ESE 23:12:35 10° NE
Cosmos-2242 3.5 23:04:49 10° N 23:08:54 60° E 23:12:59 10° SSE
Okean 1-7 Rocket 4.3 23:05:42 10° S 23:09:55 53° E 23:14:09 10° NNE
Intelsat 5-1 Rocket 2.8 23:04:31 16° WSW 23:12:12 82° NNW 23:16:02 10° ENE
CZ-4 R/B 4.2 23:12:57 10° N 23:17:44 49° WNW 23:22:29 10° SSW
Intelsat 5-3 Rocket 3.9 23:16:55 10° NW 23:18:54 20° N 23:21:43 10° ENE
Cosmos 1484 Rocket 3.9 23:17:02 10° NNE 23:20:15 38° E 23:23:31 10° S
Cosmos 1709 Rocket 4.0 23:15:44 10° S 23:21:59 80° W 23:28:19 10° N
Cosmos 2084 4.2 23:19:24 10° WNW 23:22:35 24° WSW 23:25:47 10° SSW
SJ-11-01 4.2 23:22:05 10° N 23:26:43 86° W 23:31:22 10° SSW
Nadezhda 1 Rocket 4.1 23:24:23 10° N 23:30:44 89° ENE 23:36:59 10° S
Cosmos 1939 Rocket 4.0 23:31:48 10° NNW 23:34:44 22° WNW 23:37:42 10° SW
USA 267 3.7 23:31:02 10° NE 23:37:29 64° SE 23:43:56 10° SSW
Cosmos 923 Rocket 4.2 23:33:38 10° N 23:38:48 77° ENE 23:43:57 10° SSE
